Location: Plainartige
(45.6866°N, 1.7993°E)
Time: 10:47:07
(UTC+00:00)

Tiros 1 - Pass Details

Date: 27 May 2022
Orbit: 629 x 663 km, 48.4° (Epoch: 04 July)

Event Time Altitude Azimuth Distance (km) Brightness Sun altitude
Exits shadow 02:57:47 - 275° (W) 2,716 10.0 -10.6°
Reaches altitude 10° 02:59:35 10° 278° (W) 2,018 9.3 -10.4°
Maximum altitude 03:04:12 61° 359° (N) 724 7.6 -9.9°
Drops below altitude 10° 03:08:51 10° 80° (E) 2,038 10.6 -9.3°
Sets 03:11:13 0° 84° (E) 2,954 11.5 -9.0°
